Location: Stockholm
(59.3293°N, 18.0686°E)
Time: 06:53:56
(UTC+01:00)

Envisat - Visible Passes

Search period start: 11 December 2017 00:00
Search period end: 21 December 2017 00:00
Orbit: 764 x 766 km, 98.2° (Epoch: 10 December)

Date Brightness Start Highest point End Pass type
(mag) Time Alt. Az. Time Alt. Az. Time Alt. Az.
11 Dec 6.2 06:27:43 10° ENE 06:28:11 10° ENE 06:28:39 10° E visible
11 Dec 4.7 16:15:02 11° NE 16:16:09 12° NE 16:18:07 10° NNE visible
11 Dec 3.9 17:55:14 30° NNE 17:55:14 30° NNE 17:58:31 10° N visible
11 Dec 4.7 19:35:26 27° NNW 19:35:26 27° NNW 19:37:50 10° NNW visible
12 Dec 5.2 07:27:12 10° NNE 07:31:31 27° E 07:35:47 10° SSE visible
12 Dec 4.2 17:18:05 23° NE 17:18:05 23° NE 17:21:29 10° N visible
12 Dec 4.2 18:58:18 34° NNW 18:58:18 34° NNW 19:01:07 10° NNW visible
12 Dec 5.7 20:38:30 15° NW 20:38:30 15° NW 20:39:42 10° NW visible
13 Dec 5.7 06:51:15 10° NE 06:54:16 16° E 06:57:17 10° ESE visible
13 Dec 4.5 16:40:57 16° NE 16:41:19 16° NE 16:44:17 10° N visible
13 Dec 3.9 18:21:09 34° N 18:21:09 34° N 18:24:16 10° N visible
13 Dec 5.1 20:01:21 22° NW 20:01:21 22° NW 20:03:20 10° NNW visible
14 Dec 4.8 16:03:52 10° NE 16:05:13 11° NNE 16:06:35 10° NNE visible
14 Dec 4.0 17:43:59 28° NNE 17:43:59 28° NNE 17:47:19 10° N visible
14 Dec 4.5 19:24:12 29° NNW 19:24:12 29° NNW 19:26:43 10° NNW visible
14 Dec 6.0 21:04:24 11° NW 21:04:24 11° NW 21:04:42 10° NW visible
15 Dec 5.5 07:16:14 10° NE 07:20:15 23° E 07:24:15 10° SE visible
15 Dec 4.3 17:06:49 20° NE 17:06:49 20° NE 17:10:14 10° N visible
15 Dec 4.0 18:47:02 35° N 18:47:02 35° N 18:49:58 10° NNW visible
15 Dec 5.5 20:27:14 17° NW 20:27:14 17° NW 20:28:43 10° NNW visible
16 Dec 5.9 06:40:35 10° NE 06:42:57 13° E 06:45:20 10° ESE visible
16 Dec 4.6 16:29:40 14° NE 16:30:22 14° NE 16:32:58 10° N visible
16 Dec 3.9 18:09:52 33° NNE 18:09:52 33° NNE 18:13:05 10° N visible
16 Dec 4.9 19:50:04 24° NW 19:50:04 24° NW 19:52:16 10° NNW visible
17 Dec 4.8 07:41:32 10° NNE 07:46:09 33° E 07:50:44 10° SSE visible
17 Dec 4.1 17:32:42 26° NE 17:32:42 26° NE 17:36:06 10° N visible
17 Dec 4.3 19:12:54 32° NNW 19:12:54 32° NNW 19:15:36 10° NNW visible
17 Dec 5.8 20:53:06 13° NW 20:53:06 13° NW 20:53:52 10° NW visible
18 Dec 5.6 07:05:19 10° NE 07:08:59 20° E 07:12:38 10° SE visible
18 Dec 4.4 16:55:31 18° NE 16:55:34 18° NE 16:58:59 10° N visible
18 Dec 3.9 18:35:44 36° N 18:35:44 36° N 18:38:48 10° NNW visible
18 Dec 5.3 20:15:55 19° NW 20:15:55 19° NW 20:17:42 10° NNW visible
19 Dec 6.1 06:30:16 10° ENE 06:31:37 11° ENE 06:32:59 10° E visible
19 Dec 4.7 16:18:21 12° NE 16:19:25 13° NE 16:21:35 10° N visible
19 Dec 3.9 17:58:33 32° NNE 17:58:33 32° NNE 18:01:53 10° N visible
19 Dec 4.7 19:38:45 27° NW 19:38:45 27° NW 19:41:11 10° NNW visible
20 Dec 5.1 07:30:31 10° NNE 07:34:55 28° E 07:39:17 10° SSE visible
20 Dec 4.1 17:21:22 24° NE 17:21:22 24° NE 17:24:53 10° N visible
20 Dec 4.1 19:01:34 35° NNW 19:01:34 35° NNW 19:04:28 10° NNW visible
20 Dec 5.7 20:41:45 15° NW 20:41:45 15° NW 20:42:58 10° NW visible
